| time (UTC) | temp F | wind direction | speed MPH | gust MPH | rain 1hr in | rain 24hr in | rain mn in | humidity % | barometer mb |
| 20260902225056 | 79 | 170 | 0.0 | 0.0 | 0.00 | 0.00 | 0.00 | 40 | 1021.9 |
| 20260902224554 | 79 | 156 | 0.0 | 0.0 | 0.00 | 0.00 | 0.00 | 38 | 1021.9 |
| 20260902224050 | 80 | 224 | 3.0 | 5.0 | 0.00 | 0.00 | 0.00 | 36 | 1021.8 |
| 20260902223547 | 80 | 135 | 1.0 | 1.0 | 0.00 | 0.00 | 0.00 | 35 | 1021.9 |
| 20260902223045 | 78 | 113 | 1.0 | 1.0 | 0.00 | 0.00 | 0.00 | 38 | 1021.9 |
| 20260902222544 | 78 | 14 | 2.0 | 3.0 | 0.00 | 0.00 | 0.00 | 38 | 1022.1 |
| 20260902222044 | 78 | 177 | 0.0 | 0.0 | 0.00 | 0.00 | 0.00 | 40 | 1022.1 |
| 20260902221538 | 82 | 245 | 3.0 | 3.0 | 0.00 | 0.00 | 0.00 | 36 | 1022.0 |
| 20260902221033 | 85 | 235 | 1.0 | 2.0 | 0.00 | 0.00 | 0.00 | 31 | 1022.0 |
| 20260902220528 | 84 | 191 | 2.0 | 2.0 | 0.00 | 0.00 | 0.00 | 32 | 1022.3 |
| 20260902220023 | 84 | 164 | 0.0 | 1.0 | 0.00 | 0.00 | 0.00 | 31 | 1022.3 |
| 20260902215519 | 83 | 209 | 1.0 | 2.0 | 0.00 | 0.00 | 0.00 | 31 | 1022.4 |
| 20260902215014 | 83 | 175 | 0.0 | 0.0 | 0.00 | 0.00 | 0.00 | 32 | 1022.5 |
| 20260902214514 | 82 | 154 | 1.0 | 2.0 | 0.00 | 0.00 | 0.00 | 32 | 1022.3 |
| 20260902214013 | 79 | 274 | 3.0 | 6.0 | 0.00 | 0.00 | 0.00 | 34 | 1022.3 |
| 20260902213509 | 79 | 139 | 3.0 | 6.0 | 0.00 | 0.00 | 0.00 | 34 | 1022.4 |
| 20260902213008 | 79 | 204 | 0.0 | 0.0 | 0.00 | 0.00 | 0.00 | 34 | 1022.5 |
| 20260902212504 | 79 | 178 | 1.0 | 1.0 | 0.00 | 0.00 | 0.00 | 33 | 1022.3 |
| 20260902212000 | 80 | 216 | 1.0 | 2.0 | 0.00 | 0.00 | 0.00 | 32 | 1022.1 |
| 20260902211455 | 81 | 333 | 2.0 | 2.0 | 0.00 | 0.00 | 0.00 | 32 | 1022.1 |
| 20260902210950 | 80 | 218 | 2.0 | 3.0 | 0.00 | 0.00 | 0.00 | 31 | 1022.4 |
| 20260902210445 | 82 | 203 | 3.0 | 5.0 | 0.00 | 0.00 | 0.00 | 30 | 1022.3 |
| 20260902205943 | 82 | 38 | 2.0 | 2.0 | 0.00 | 0.00 | 0.00 | 31 | 1022.4 |
| 20260902205439 | 79 | 211 | 0.0 | 0.0 | 0.00 | 0.00 | 0.00 | 34 | 1022.1 |
| 20260902204934 | 81 | 270 | 3.0 | 3.0 | 0.00 | 0.00 | 0.00 | 32 | 1022.1 |
| 20260902204434 | 80 | 206 | 3.0 | 5.0 | 0.00 | 0.00 | 0.00 | 32 | 1022.3 |
| 20260902203929 | 80 | 210 | 1.0 | 2.0 | 0.00 | 0.00 | 0.00 | 33 | 1022.3 |
| 20260902203425 | 83 | 119 | 1.0 | 2.0 | 0.00 | 0.00 | 0.00 | 29 | 1022.5 |
| 20260902202924 | 82 | 79 | 1.0 | 1.0 | 0.00 | 0.00 | 0.00 | 31 | 1022.5 |
| 20260902202420 | 83 | 30 | 1.0 | 1.0 | 0.00 | 0.00 | 0.00 | 35 | 1022.6 |
| 20260902201916 | 83 | 115 | 1.0 | 1.0 | 0.00 | 0.00 | 0.00 | 32 | 1022.5 |
| 20260902201411 | 83 | 161 | 1.0 | 1.0 | 0.00 | 0.00 | 0.00 | 34 | 1022.6 |
| 20260902200906 | 82 | 86 | 1.0 | 2.0 | 0.00 | 0.00 | 0.00 | 33 | 1023.0 |
| 20260902200401 | 80 | 174 | 1.0 | 1.0 | 0.00 | 0.00 | 0.00 | 36 | 1023.0 |
| 20260902195856 | 82 | 87 | 2.0 | 3.0 | 0.00 | 0.00 | 0.00 | 35 | 1023.4 |
| 20260902195350 | 81 | 252 | 1.0 | 2.0 | 0.00 | 0.00 | 0.00 | 34 | 1023.1 |
| 20260902194845 | 80 | 50 | 1.0 | 1.0 | 0.00 | 0.00 | 0.00 | 37 | 1023.1 |
| 20260902194339 | 80 | 159 | 0.0 | 0.0 | 0.00 | 0.00 | 0.00 | 36 | 1023.4 |
| 20260902193835 | 81 | 230 | 1.0 | 2.0 | 0.00 | 0.00 | 0.00 | 35 | 1023.4 |
| 20260902193331 | 80 | 185 | 0.0 | 1.0 | 0.00 | 0.00 | 0.00 | 35 | 1023.4 |
| 20260902192829 | 80 | 172 | 0.0 | 0.0 | 0.00 | 0.00 | 0.00 | 40 | 1023.7 |
| 20260902192327 | 81 | 208 | 1.0 | 1.0 | 0.00 | 0.00 | 0.00 | 33 | 1023.5 |
| 20260902191822 | 81 | 196 | 2.0 | 3.0 | 0.00 | 0.00 | 0.00 | 33 | 1023.6 |
| 20260902191318 | 82 | 231 | 1.0 | 3.0 | 0.00 | 0.00 | 0.00 | 32 | 1024.0 |
| 20260902190813 | 81 | 204 | 3.0 | 6.0 | 0.00 | 0.00 | 0.00 | 33 | 1023.7 |
| 20260902190312 | 81 | 278 | 3.0 | 3.0 | 0.00 | 0.00 | 0.00 | 34 | 1023.7 |
| 20260902185809 | 81 | 172 | 0.0 | 1.0 | 0.00 | 0.00 | 0.00 | 36 | 1023.7 |
| 20260902185306 | 80 | 249 | 3.0 | 3.0 | 0.00 | 0.00 | 0.00 | 35 | 1024.0 |
| 20260902184759 | 80 | 99 | 2.0 | 2.0 | 0.00 | 0.00 | 0.00 | 37 | 1024.1 |
| 20260902184254 | 79 | 197 | 0.0 | 0.0 | 0.00 | 0.00 | 0.00 | 41 | 1024.2 |
| 20260902183750 | 79 | 256 | 1.0 | 1.0 | 0.00 | 0.00 | 0.00 | 41 | 1024.1 |
| 20260902183246 | 79 | 167 | 0.0 | 1.0 | 0.00 | 0.00 | 0.00 | 37 | 1024.3 |
| 20260902182742 | 79 | 233 | 3.0 | 7.0 | 0.00 | 0.00 | 0.00 | 34 | 1024.2 |
| 20260902182238 | 78 | 193 | 1.0 | 1.0 | 0.00 | 0.00 | 0.00 | 36 | 1024.5 |
| 20260902181735 | 77 | 65 | 0.0 | 1.0 | 0.00 | 0.00 | 0.00 | 39 | 1024.5 |
| 20260902181234 | 77 | 151 | 0.0 | 1.0 | 0.00 | 0.00 | 0.00 | 41 | 1024.8 |
| 20260902180729 | 77 | 186 | 1.0 | 1.0 | 0.00 | 0.00 | 0.00 | 38 | 1024.8 |
| 20260902180224 | 77 | 154 | 0.0 | 1.0 | 0.00 | 0.00 | 0.00 | 41 | 1024.7 |
| 20260902175719 | 77 | 172 | 1.0 | 2.0 | 0.00 | 0.00 | 0.00 | 40 | 1024.8 |
| 20260902175215 | 77 | 129 | 1.0 | 2.0 | 0.00 | 0.00 | 0.00 | 43 | 1024.7 |
| 20260902174711 | 76 | 173 | 0.0 | 0.0 | 0.00 | 0.00 | 0.00 | 43 | 1024.7 |
| 20260902174207 | 77 | 77 | 1.0 | 1.0 | 0.00 | 0.00 | 0.00 | 42 | 1024.9 |
| 20260902173702 | 76 | 147 | 1.0 | 1.0 | 0.00 | 0.00 | 0.00 | 42 | 1024.7 |
| 20260902173156 | 76 | 210 | 0.0 | 1.0 | 0.00 | 0.00 | 0.00 | 40 | 1024.6 |
| 20260902172651 | 76 | 213 | 1.0 | 1.0 | 0.00 | 0.00 | 0.00 | 40 | 1024.9 |
| 20260902172150 | 76 | 192 | 1.0 | 1.0 | 0.00 | 0.00 | 0.00 | 40 | 1024.8 |
| 20260902171645 | 75 | 188 | 1.0 | 2.0 | 0.00 | 0.00 | 0.00 | 39 | 1024.9 |
| 20260902171141 | 75 | 169 | 0.0 | 0.0 | 0.00 | 0.00 | 0.00 | 41 | 1024.7 |
| 20260902170637 | 74 | 184 | 0.0 | 1.0 | 0.00 | 0.00 | 0.00 | 43 | 1024.8 |
| 20260902170132 | 73 | 198 | 1.0 | 2.0 | 0.00 | 0.00 | 0.00 | 45 | 1024.8 |
| 20260902165627 | 72 | 241 | 1.0 | 1.0 | 0.00 | 0.00 | 0.00 | 44 | 1024.9 |
| 20260902165127 | 71 | 201 | 0.0 | 1.0 | 0.00 | 0.00 | 0.00 | 46 | 1024.8 |
| 20260902164622 | 70 | 133 | 0.0 | 0.0 | 0.00 | 0.00 | 0.00 | 51 | 1024.7 |
| 20260902164121 | 70 | 72 | 0.0 | 1.0 | 0.00 | 0.00 | 0.00 | 48 | 1024.9 |
| 20260902163616 | 69 | 199 | 0.0 | 0.0 | 0.00 | 0.00 | 0.00 | 48 | 1025.2 |
| 20260902163115 | 69 | 165 | 1.0 | 2.0 | 0.00 | 0.00 | 0.00 | 47 | 1025.3 |
| 20260902162614 | 69 | 145 | 0.0 | 0.0 | 0.00 | 0.00 | 0.00 | 49 | 1025.1 |
| 20260902162109 | 69 | 229 | 1.0 | 1.0 | 0.00 | 0.00 | 0.00 | 51 | 1025.3 |
| 20260902161604 | 68 | 183 | 0.0 | 1.0 | 0.00 | 0.00 | 0.00 | 52 | 1025.2 |
| 20260902161100 | 68 | 187 | 0.0 | 1.0 | 0.00 | 0.00 | 0.00 | 53 | 1025.4 |
| 20260902160556 | 67 | 161 | 0.0 | 0.0 | 0.00 | 0.00 | 0.00 | 53 | 1025.1 |
| 20260902160051 | 66 | 188 | 0.0 | 0.0 | 0.00 | 0.00 | 0.00 | 55 | 1025.1 |
| 20260902155544 | 66 | 146 | 0.0 | 0.0 | 0.00 | 0.00 | 0.00 | 58 | 1025.4 |
| 20260902155043 | 65 | 110 | 0.0 | 0.0 | 0.00 | 0.00 | 0.00 | 54 | 1025.6 |
| 20260902154538 | 65 | 140 | 0.0 | 0.0 | 0.00 | 0.00 | 0.00 | 57 | 1025.4 |
| 20260902154033 | 65 | 95 | 1.0 | 1.0 | 0.00 | 0.00 | 0.00 | 53 | 1025.6 |
| 20260902153531 | 64 | 197 | 0.0 | 0.0 | 0.00 | 0.00 | 0.00 | 58 | 1025.6 |
| 20260902153028 | 64 | 188 | 0.0 | 0.0 | 0.00 | 0.00 | 0.00 | 59 | 1025.7 |
| 20260902152524 | 64 | 139 | 1.0 | 1.0 | 0.00 | 0.00 | 0.00 | 62 | 1025.7 |
| 20260902152019 | 63 | 107 | 1.0 | 1.0 | 0.00 | 0.00 | 0.00 | 62 | 1025.8 |
| 20260902151515 | 62 | 176 | 0.0 | 0.0 | 0.00 | 0.00 | 0.00 | 63 | 1025.8 |
| 20260902151014 | 62 | 94 | 1.0 | 1.0 | 0.00 | 0.00 | 0.00 | 63 | 1025.7 |
| 20260902150509 | 62 | 129 | 0.0 | 0.0 | 0.00 | 0.00 | 0.00 | 67 | 1025.8 |
| 20260902150004 | 62 | 143 | 0.0 | 1.0 | 0.00 | 0.00 | 0.00 | 66 | 1025.8 |
| 20260902145459 | 61 | 141 | 0.0 | 1.0 | 0.00 | 0.00 | 0.00 | 68 | 1025.8 |
| 20260902144953 | 60 | 170 | 0.0 | 0.0 | 0.00 | 0.00 | 0.00 | 65 | 1025.9 |
| 20260902144449 | 60 | 159 | 0.0 | 0.0 | 0.00 | 0.00 | 0.00 | 70 | 1025.9 |
| 20260902143944 | 59 | 128 | 1.0 | 1.0 | 0.00 | 0.00 | 0.00 | 72 | 1025.8 |
| 20260902143440 | 59 | 93 | 1.0 | 2.0 | 0.00 | 0.00 | 0.00 | 72 | 1025.9 |
| 20260902142934 | 58 | 173 | 0.0 | 0.0 | 0.00 | 0.00 | 0.00 | 72 | 1026.0 |
| 20260902142430 | 57 | 157 | 0.0 | 0.0 | 0.00 | 0.00 | 0.00 | 72 | 1026.2 |
| 20260902141926 | 56 | 139 | 0.0 | 0.0 | 0.00 | 0.00 | 0.00 | 77 | 1025.9 |
| 20260902141421 | 55 | 114 | 0.0 | 0.0 | 0.00 | 0.00 | 0.00 | 79 | 1026.2 |
| 20260902140920 | 56 | 91 | 0.0 | 1.0 | 0.00 | 0.00 | 0.00 | 79 | 1026.0 |
| 20260902140416 | 57 | 106 | 0.0 | 0.0 | 0.00 | 0.00 | 0.00 | 75 | 1025.8 |
| 20260902135910 | 54 | 147 | 0.0 | 0.0 | 0.00 | 0.00 | 0.00 | 81 | 1026.0 |
| 20260902135406 | 52 | 127 | 0.0 | 0.0 | 0.00 | 0.00 | 0.00 | 87 | 1025.8 |
| 20260902134904 | 51 | 163 | 0.0 | 0.0 | 0.00 | 0.00 | 0.00 | 89 | 1026.3 |
| 20260902134400 | 50 | 134 | 0.0 | 0.0 | 0.00 | 0.00 | 0.00 | 91 | 1026.0 |
| 20260902133855 | 49 | 136 | 0.0 | 0.0 | 0.00 | 0.00 | 0.00 | 91 | 1026.3 |
| 20260902133355 | 48 | 163 | 0.0 | 0.0 | 0.00 | 0.00 | 0.00 | 92 | 1025.9 |
| 20260902132850 | 48 | 167 | 0.0 | 0.0 | 0.00 | 0.00 | 0.00 | 93 | 1025.9 |
| 20260902132345 | 48 | 156 | 0.0 | 0.0 | 0.00 | 0.00 | 0.00 | 94 | 1025.9 |
| 20260902131841 | 48 | 155 | 0.0 | 0.0 | 0.00 | 0.00 | 0.00 | 94 | 1025.8 |
| 20260902131338 | 48 | 127 | 0.0 | 0.0 | 0.00 | 0.00 | 0.00 | 94 | 1025.7 |
| 20260902130836 | 48 | 166 | 0.0 | 0.0 | 0.00 | 0.00 | 0.00 | 94 | 1025.7 |
| 20260902130333 | 48 | 159 | 0.0 | 0.0 | 0.00 | 0.00 | 0.00 | 94 | 1025.8 |
| 20260902125827 | 48 | 159 | 0.0 | 0.0 | 0.00 | 0.00 | 0.00 | 93 | 1025.9 |
| 20260902125323 | 48 | 160 | 0.0 | 0.0 | 0.00 | 0.00 | 0.00 | 93 | 1025.7 |
| 20260902124819 | 48 | 170 | 0.0 | 0.0 | 0.00 | 0.00 | 0.00 | 94 | 1025.9 |
| 20260902124315 | 48 | 156 | 0.0 | 0.0 | 0.00 | 0.00 | 0.00 | 93 | 1025.4 |
| 20260902123810 | 48 | 143 | 0.0 | 0.0 | 0.00 | 0.00 | 0.00 | 93 | 1025.8 |
| 20260902123306 | 48 | 150 | 0.0 | 0.0 | 0.00 | 0.00 | 0.00 | 92 | 1025.8 |
| 20260902122805 | 48 | 157 | 0.0 | 0.0 | 0.00 | 0.00 | 0.00 | 91 | 1025.6 |
| 20260902122305 | 49 | 158 | 0.0 | 0.0 | 0.00 | 0.00 | 0.00 | 91 | 1025.8 |
| 20260902121800 | 48 | 173 | 0.0 | 0.0 | 0.00 | 0.00 | 0.00 | 91 | 1025.6 |
| 20260902121255 | 49 | 173 | 0.0 | 0.0 | 0.00 | 0.00 | 0.00 | 90 | 1025.6 |
| 20260902120751 | 49 | 165 | 0.0 | 0.0 | 0.00 | 0.00 | 0.00 | 89 | 1025.6 |
| 20260902120247 | 50 | 147 | 0.0 | 0.0 | 0.00 | 0.00 | 0.00 | 90 | 1025.6 |
| 20260902115742 | 49 | 170 | 0.0 | 0.0 | 0.00 | 0.00 | 0.00 | 90 | 1025.3 |
| 20260902115238 | 50 | 150 | 0.0 | 0.0 | 0.00 | 0.00 | 0.00 | 90 | 1025.4 |
| 20260902114734 | 50 | 148 | 0.0 | 0.0 | 0.00 | 0.00 | 0.00 | 90 | 1024.9 |
| 20260902114230 | 49 | 126 | 0.0 | 0.0 | 0.00 | 0.00 | 0.00 | 89 | 1025.8 |
| 20260902113730 | 49 | 171 | 0.0 | 0.0 | 0.00 | 0.00 | 0.00 | 90 | 1025.7 |
| 20260902113225 | 49 | 166 | 0.0 | 0.0 | 0.00 | 0.00 | 0.00 | 90 | 1025.4 |
| 20260902112724 | 49 | 166 | 0.0 | 0.0 | 0.00 | 0.00 | 0.00 | 89 | 1025.6 |
| 20260902112222 | 49 | 166 | 0.0 | 0.0 | 0.00 | 0.00 | 0.00 | 88 | 1025.3 |
| 20260902111717 | 50 | 152 | 0.0 | 0.0 | 0.00 | 0.00 | 0.00 | 89 | 1025.2 |
| 20260902111213 | 50 | 133 | 0.0 | 0.0 | 0.00 | 0.00 | 0.00 | 89 | 1025.3 |
| 20260902110709 | 50 | 159 | 0.0 | 0.0 | 0.00 | 0.00 | 0.00 | 88 | 1025.2 |
| 20260902110204 | 50 | 155 | 0.0 | 0.0 | 0.00 | 0.00 | 0.00 | 88 | 1025.3 |
| 20260902105704 | 51 | 155 | 0.0 | 0.0 | 0.00 | 0.00 | 0.00 | 87 | 1025.3 |
| 20260902105159 | 51 | 143 | 0.0 | 0.0 | 0.00 | 0.00 | 0.00 | 86 | 1025.3 |
| 20260902104654 | 51 | 168 | 0.0 | 0.0 | 0.00 | 0.00 | 0.00 | 82 | 1024.9 |
| 20260902104150 | 50 | 166 | 0.0 | 0.0 | 0.00 | 0.00 | 0.00 | 84 | 1025.3 |
| 20260902103649 | 50 | 159 | 0.0 | 0.0 | 0.00 | 0.00 | 0.00 | 86 | 1025.2 |
| 20260902103144 | 50 | 157 | 0.0 | 0.0 | 0.00 | 0.00 | 0.00 | 87 | 1025.3 |
| 20260902102641 | 51 | 128 | 0.0 | 0.0 | 0.00 | 0.00 | 0.00 | 88 | 1025.3 |
| 20260902102138 | 51 | 148 | 0.0 | 0.0 | 0.00 | 0.00 | 0.00 | 87 | 1025.4 |
| 20260902101633 | 51 | 91 | 0.0 | 1.0 | 0.00 | 0.00 | 0.00 | 82 | 1025.4 |
| 20260902101132 | 51 | 181 | 0.0 | 0.0 | 0.00 | 0.00 | 0.00 | 87 | 1025.4 |
| 20260902100627 | 51 | 170 | 0.0 | 0.0 | 0.00 | 0.00 | 0.00 | 86 | 1025.4 |
| 20260902100122 | 51 | 170 | 0.0 | 0.0 | 0.00 | 0.00 | 0.00 | 86 | 1025.4 |
| 20260902095621 | 51 | 167 | 0.0 | 0.0 | 0.00 | 0.00 | 0.00 | 86 | 1025.4 |
| 20260902095120 | 51 | 157 | 0.0 | 0.0 | 0.00 | 0.00 | 0.00 | 86 | 1025.3 |
| 20260902094616 | 52 | 144 | 0.0 | 0.0 | 0.00 | 0.00 | 0.00 | 86 | 1025.2 |
| 20260902094113 | 52 | 115 | 0.0 | 1.0 | 0.00 | 0.00 | 0.00 | 87 | 1025.4 |
| 20260902093612 | 51 | 151 | 0.0 | 0.0 | 0.00 | 0.00 | 0.00 | 86 | 1025.2 |
| 20260902093107 | 51 | 183 | 0.0 | 0.0 | 0.00 | 0.00 | 0.00 | 87 | 1025.3 |
| 20260902092607 | 51 | 163 | 0.0 | 0.0 | 0.00 | 0.00 | 0.00 | 87 | 1025.3 |
| 20260902092102 | 51 | 193 | 0.0 | 0.0 | 0.00 | 0.00 | 0.00 | 87 | 1025.3 |
| 20260902091557 | 51 | 154 | 0.0 | 0.0 | 0.00 | 0.00 | 0.00 | 88 | 1024.9 |
| 20260902091053 | 52 | 148 | 0.0 | 0.0 | 0.00 | 0.00 | 0.00 | 87 | 1025.1 |
| 20260902090549 | 52 | 142 | 0.0 | 0.0 | 0.00 | 0.00 | 0.00 | 88 | 1025.3 |
| 20260902090048 | 52 | 164 | 0.0 | 0.0 | 0.00 | 0.00 | 0.00 | 87 | 1025.1 |
| 20260902085542 | 52 | 149 | 0.0 | 0.0 | 0.00 | 0.00 | 0.00 | 88 | 1025.3 |
| 20260902085037 | 52 | 151 | 0.0 | 0.0 | 0.00 | 0.00 | 0.00 | 88 | 1025.2 |
| 20260902084534 | 52 | 172 | 0.0 | 0.0 | 0.00 | 0.00 | 0.00 | 86 | 1025.6 |
| 20260902084029 | 52 | 173 | 0.0 | 0.0 | 0.00 | 0.00 | 0.00 | 84 | 1025.6 |
| 20260902083519 | 52 | 173 | 0.0 | 0.0 | 0.00 | 0.00 | 0.00 | 83 | 1025.4 |
| 20260902083013 | 52 | 153 | 0.0 | 0.0 | 0.00 | 0.00 | 0.00 | 85 | 1025.4 |
| 20260902082509 | 52 | 165 | 0.0 | 0.0 | 0.00 | 0.00 | 0.00 | 84 | 1025.6 |
| 20260902082005 | 53 | 164 | 0.0 | 0.0 | 0.00 | 0.00 | 0.00 | 84 | 1025.3 |
| 20260902081501 | 53 | 137 | 0.0 | 0.0 | 0.00 | 0.00 | 0.00 | 85 | 1025.2 |
| 20260902080955 | 53 | 135 | 0.0 | 0.0 | 0.00 | 0.00 | 0.00 | 84 | 1025.4 |
| 20260902080451 | 52 | 172 | 0.0 | 0.0 | 0.00 | 0.00 | 0.00 | 81 | 1025.4 |
| 20260902075951 | 52 | 168 | 0.0 | 0.0 | 0.00 | 0.00 | 0.00 | 84 | 1025.6 |
| 20260902075447 | 52 | 150 | 0.0 | 0.0 | 0.00 | 0.00 | 0.00 | 85 | 1025.7 |
| 20260902074942 | 52 | 147 | 0.0 | 0.0 | 0.00 | 0.00 | 0.00 | 84 | 1025.7 |
| 20260902074438 | 53 | 147 | 0.0 | 0.0 | 0.00 | 0.00 | 0.00 | 83 | 1025.8 |
| 20260902073932 | 53 | 118 | 1.0 | 1.0 | 0.00 | 0.00 | 0.00 | 83 | 1025.7 |
| 20260902073429 | 52 | 147 | 0.0 | 0.0 | 0.00 | 0.00 | 0.00 | 81 | 1025.7 |
| 20260902072925 | 52 | 144 | 0.0 | 0.0 | 0.00 | 0.00 | 0.00 | 82 | 1025.7 |
| 20260902072420 | 52 | 136 | 0.0 | 0.0 | 0.00 | 0.00 | 0.00 | 82 | 1025.7 |
| 20260902071917 | 52 | 143 | 0.0 | 0.0 | 0.00 | 0.00 | 0.00 | 84 | 1025.6 |
| 20260902071416 | 52 | 181 | 0.0 | 0.0 | 0.00 | 0.00 | 0.00 | 86 | 1025.6 |
| 20260902070913 | 52 | 161 | 0.0 | 0.0 | 0.00 | 0.00 | 0.00 | 85 | 1025.4 |
| 20260902070408 | 51 | 151 | 0.0 | 0.0 | 0.00 | 0.00 | 0.00 | 86 | 1025.4 |
| 20260902065907 | 51 | 158 | 0.0 | 0.0 | 0.00 | 0.00 | 0.00 | 86 | 1025.6 |
| 20260902065402 | 51 | 150 | 0.0 | 0.0 | 0.00 | 0.00 | 0.00 | 87 | 1025.4 |
| 20260902064857 | 51 | 146 | 0.0 | 0.0 | 0.00 | 0.00 | 0.00 | 88 | 1025.6 |
| 20260902064353 | 51 | 115 | 0.0 | 0.0 | 0.00 | 0.00 | 0.00 | 89 | 1025.7 |
| 20260902063848 | 51 | 178 | 0.0 | 0.0 | 0.00 | 0.00 | 0.00 | 88 | 1025.4 |
| 20260902063343 | 51 | 178 | 0.0 | 0.0 | 0.00 | 0.00 | 0.00 | 87 | 1025.6 |
| 20260902062842 | 51 | 169 | 0.0 | 0.0 | 0.00 | 0.00 | 0.00 | 86 | 1025.6 |
| 20260902062337 | 51 | 101 | 1.0 | 1.0 | 0.00 | 0.00 | 0.00 | 85 | 1025.4 |
| 20260902061836 | 51 | 159 | 0.0 | 0.0 | 0.00 | 0.00 | 0.00 | 85 | 1025.4 |
| 20260902061332 | 52 | 159 | 0.0 | 0.0 | 0.00 | 0.00 | 0.00 | 85 | 1025.4 |
| 20260902060828 | 52 | 150 | 0.0 | 0.0 | 0.00 | 0.00 | 0.00 | 84 | 1025.4 |
| 20260902060324 | 52 | 161 | 0.0 | 0.0 | 0.00 | 0.00 | 0.00 | 85 | 1025.4 |
| 20260902055819 | 52 | 152 | 0.0 | 0.0 | 0.00 | 0.01 | 0.01 | 86 | 1025.3 |
| 20260902055316 | 52 | 160 | 0.0 | 0.0 | 0.00 | 0.01 | 0.01 | 85 | 1025.3 |
| 20260902054816 | 53 | 160 | 0.0 | 0.0 | 0.00 | 0.01 | 0.01 | 83 | 1025.4 |
| 20260902054311 | 53 | 160 | 0.0 | 0.0 | 0.00 | 0.01 | 0.01 | 82 | 1025.2 |
| 20260902053806 | 53 | 151 | 0.0 | 0.0 | 0.00 | 0.01 | 0.01 | 82 | 1025.3 |
| 20260902053301 | 53 | 160 | 0.0 | 0.0 | 0.00 | 0.01 | 0.01 | 81 | 1025.4 |
| 20260902052800 | 53 | 160 | 0.0 | 0.0 | 0.00 | 0.01 | 0.01 | 79 | 1025.3 |
| 20260902052255 | 53 | 160 | 0.0 | 0.0 | 0.00 | 0.01 | 0.01 | 77 | 1025.1 |
| 20260902051755 | 54 | 160 | 0.0 | 0.0 | 0.00 | 0.01 | 0.01 | 78 | 1025.2 |
| 20260902051249 | 54 | 151 | 0.0 | 0.0 | 0.00 | 0.01 | 0.01 | 78 | 1025.1 |
| 20260902050745 | 54 | 176 | 0.0 | 0.0 | 0.00 | 0.01 | 0.01 | 78 | 1024.9 |
| 20260902050240 | 54 | 148 | 0.0 | 0.0 | 0.00 | 0.01 | 0.01 | 78 | 1025.1 |
| 20260902045739 | 54 | 148 | 0.0 | 0.0 | 0.00 | 0.01 | 0.01 | 76 | 1024.8 |
| 20260902045236 | 55 | 142 | 0.0 | 0.0 | 0.00 | 0.01 | 0.01 | 76 | 1025.2 |
| 20260902044732 | 55 | 174 | 0.0 | 0.0 | 0.00 | 0.01 | 0.01 | 76 | 1024.9 |
| 20260902044226 | 55 | 149 | 0.0 | 0.0 | 0.00 | 0.01 | 0.01 | 77 | 1024.7 |
| 20260902043721 | 55 | 157 | 0.0 | 0.0 | 0.00 | 0.01 | 0.01 | 74 | 1024.9 |
| 20260902043217 | 56 | 157 | 0.0 | 0.0 | 0.00 | 0.01 | 0.01 | 74 | 1024.8 |
| 20260902042716 | 56 | 187 | 0.0 | 0.0 | 0.00 | 0.01 | 0.01 | 73 | 1024.9 |
| 20260902042211 | 57 | 150 | 0.0 | 0.0 | 0.00 | 0.01 | 0.01 | 74 | 1024.7 |
| 20260902041706 | 57 | 150 | 0.0 | 0.0 | 0.00 | 0.01 | 0.01 | 70 | 1024.8 |
| 20260902041201 | 58 | 167 | 0.0 | 0.0 | 0.00 | 0.01 | 0.01 | 68 | 1024.6 |
| 20260902040701 | 58 | 143 | 0.0 | 0.0 | 0.00 | 0.01 | 0.01 | 69 | 1024.7 |
| 20260902040156 | 59 | 182 | 0.0 | 0.0 | 0.00 | 0.01 | 0.01 | 63 | 1024.6 |
| 20260902035654 | 59 | 176 | 0.0 | 0.0 | 0.00 | 0.01 | 0.01 | 61 | 1024.5 |
| 20260902035150 | 59 | 155 | 0.0 | 0.0 | 0.00 | 0.01 | 0.01 | 61 | 1024.3 |
| 20260902034649 | 59 | 191 | 0.0 | 0.0 | 0.00 | 0.01 | 0.01 | 61 | 1024.1 |
| 20260902034148 | 59 | 146 | 0.0 | 0.0 | 0.00 | 0.01 | 0.01 | 64 | 1024.3 |
| 20260902033647 | 59 | 176 | 0.0 | 0.0 | 0.00 | 0.01 | 0.01 | 59 | 1024.2 |
| 20260902033143 | 59 | 158 | 0.0 | 0.0 | 0.00 | 0.01 | 0.01 | 59 | 1023.8 |
| 20260902032641 | 60 | 158 | 0.0 | 0.0 | 0.00 | 0.01 | 0.01 | 59 | 1024.1 |
| 20260902032136 | 61 | 201 | 0.0 | 0.0 | 0.00 | 0.01 | 0.01 | 58 | 1023.8 |
| 20260902031630 | 62 | 201 | 0.0 | 0.0 | 0.00 | 0.01 | 0.01 | 57 | 1023.8 |
| 20260902031126 | 62 | 210 | 0.0 | 1.0 | 0.00 | 0.01 | 0.01 | 57 | 1023.8 |
| 20260902030621 | 63 | 185 | 0.0 | 0.0 | 0.00 | 0.01 | 0.01 | 54 | 1023.8 |
| 20260902030121 | 64 | 116 | 0.0 | 1.0 | 0.00 | 0.01 | 0.01 | 53 | 1023.6 |
| 20260902025620 | 64 | 66 | 1.0 | 1.0 | 0.00 | 0.01 | 0.01 | 53 | 1023.7 |
| 20260902025116 | 65 | 138 | 0.0 | 1.0 | 0.00 | 0.01 | 0.01 | 48 | 1023.1 |
| 20260902024612 | 66 | 201 | 0.0 | 0.0 | 0.00 | 0.01 | 0.01 | 49 | 1023.2 |
| 20260902024106 | 66 | 205 | 0.0 | 1.0 | 0.00 | 0.01 | 0.01 | 48 | 1023.2 |
| 20260902023602 | 68 | 118 | 0.0 | 0.0 | 0.00 | 0.01 | 0.01 | 50 | 1023.4 |
| 20260902023057 | 68 | 190 | 0.0 | 0.0 | 0.00 | 0.01 | 0.01 | 44 | 1023.0 |
| 20260902022556 | 68 | 192 | 0.0 | 0.0 | 0.00 | 0.01 | 0.01 | 44 | 1023.1 |
| 20260902022052 | 68 | 202 | 0.0 | 0.0 | 0.00 | 0.01 | 0.01 | 45 | 1022.9 |
| 20260902021547 | 68 | 245 | 2.0 | 3.0 | 0.00 | 0.01 | 0.01 | 44 | 1022.6 |
| 20260902021042 | 69 | 197 | 0.0 | 1.0 | 0.00 | 0.01 | 0.01 | 44 | 1022.8 |
| 20260902020532 | 69 | 200 | 1.0 | 2.0 | 0.00 | 0.01 | 0.01 | 44 | 1022.8 |
| 20260902020028 | 69 | 242 | 2.0 | 3.0 | 0.00 | 0.01 | 0.01 | 44 | 1022.5 |
| 20260902015524 | 69 | 187 | 0.0 | 1.0 | 0.00 | 0.01 | 0.01 | 45 | 1022.8 |
| 20260902015019 | 70 | 170 | 0.0 | 1.0 | 0.00 | 0.01 | 0.01 | 44 | 1022.6 |
| 20260902014515 | 70 | 179 | 1.0 | 1.0 | 0.00 | 0.01 | 0.01 | 43 | 1022.1 |
| 20260902014010 | 70 | 144 | 0.0 | 0.0 | 0.00 | 0.01 | 0.01 | 41 | 1022.3 |
| 20260902013505 | 70 | 141 | 0.0 | 0.0 | 0.00 | 0.01 | 0.01 | 42 | 1022.3 |
| 20260902013000 | 68 | 192 | 0.0 | 0.0 | 0.00 | 0.01 | 0.01 | 48 | 1022.1 |
| 20260902012455 | 68 | 193 | 0.0 | 0.0 | 0.00 | 0.01 | 0.01 | 48 | 1021.8 |
| 20260902011951 | 68 | 196 | 0.0 | 0.0 | 0.00 | 0.01 | 0.01 | 48 | 1022.1 |
| 20260902011447 | 69 | 169 | 0.0 | 0.0 | 0.00 | 0.01 | 0.01 | 46 | 1022.3 |
| 20260902010946 | 69 | 153 | 0.0 | 0.0 | 0.00 | 0.01 | 0.01 | 45 | 1022.4 |
| 20260902010441 | 70 | 191 | 0.0 | 0.0 | 0.00 | 0.01 | 0.01 | 44 | 1022.4 |
| 20260902005940 | 71 | 187 | 0.0 | 0.0 | 0.00 | 0.01 | 0.01 | 44 | 1022.4 |
| 20260902005439 | 72 | 158 | 0.0 | 0.0 | 0.00 | 0.01 | 0.01 | 42 | 1022.1 |
| 20260902004936 | 74 | 199 | 0.0 | 0.0 | 0.00 | 0.01 | 0.01 | 38 | 1022.1 |
| 20260902004435 | 75 | 189 | 0.0 | 0.0 | 0.00 | 0.01 | 0.01 | 37 | 1021.9 |
| 20260902003931 | 76 | 160 | 0.0 | 1.0 | 0.00 | 0.01 | 0.01 | 35 | 1021.8 |
| 20260902003430 | 76 | 267 | 3.0 | 3.0 | 0.00 | 0.01 | 0.01 | 34 | 1021.9 |
| 20260902002926 | 76 | 307 | 2.0 | 3.0 | 0.00 | 0.01 | 0.01 | 35 | 1021.8 |
| 20260902002421 | 76 | 207 | 1.0 | 1.0 | 0.00 | 0.01 | 0.01 | 35 | 1021.9 |
| 20260902001920 | 75 | 180 | 0.0 | 0.0 | 0.00 | 0.01 | 0.01 | 35 | 1021.9 |
| 20260902001415 | 76 | 186 | 0.0 | 0.0 | 0.00 | 0.01 | 0.01 | 36 | 1021.9 |
| 20260902000911 | 77 | 138 | 0.0 | 1.0 | 0.00 | 0.01 | 0.01 | 36 | 1021.8 |
| 20260902000407 | 78 | 83 | 0.0 | 0.0 | 0.00 | 0.01 | 0.01 | 33 | 1021.5 |
| 20260901235901 | 82 | 241 | 1.0 | 2.0 | 0.00 | 0.01 | 0.01 | 31 | 1022.0 |
| 20260901235400 | 84 | 255 | 2.0 | 2.0 | 0.00 | 0.01 | 0.01 | 30 | 1021.8 |
| 20260901234855 | 83 | 127 | 1.0 | 1.0 | 0.00 | 0.01 | 0.01 | 31 | 1022.1 |
| 20260901234350 | 83 | 163 | 3.0 | 5.0 | 0.00 | 0.01 | 0.01 | 30 | 1022.0 |
| 20260901233845 | 83 | 176 | 0.0 | 1.0 | 0.00 | 0.01 | 0.01 | 32 | 1021.9 |
| 20260901233341 | 82 | 268 | 1.0 | 2.0 | 0.00 | 0.01 | 0.01 | 32 | 1021.8 |
| 20260901232837 | 83 | 162 | 2.0 | 2.0 | 0.00 | 0.01 | 0.01 | 32 | 1021.8 |
| 20260901232331 | 84 | 51 | 2.0 | 2.0 | 0.00 | 0.01 | 0.01 | 30 | 1021.9 |
| 20260901231827 | 84 | 201 | 1.0 | 1.0 | 0.00 | 0.01 | 0.01 | 32 | 1022.0 |
| 20260901231323 | 84 | 244 | 2.0 | 2.0 | 0.00 | 0.01 | 0.01 | 29 | 1022.0 |
| 20260901230820 | 85 | 241 | 1.0 | 2.0 | 0.00 | 0.01 | 0.01 | 30 | 1021.8 |
| 20260901230319 | 84 | 246 | 0.0 | 1.0 | 0.00 | 0.01 | 0.01 | 31 | 1022.1 |
| 20260901225815 | 83 | 179 | 2.0 | 2.0 | 0.00 | 0.01 | 0.01 | 30 | 1022.3 |